Regional Weather Roundup
Issued by NWS

Home | Current Version | Previous Version | Graphics & Text | Print | Product List | Glossary On
Versions: 1 2 3 4 5 6 7 8 9 10 11 12 13 14 15 16 17 18 19 20 21 22 23 24 25 26 27 28 29 30 31 32 33 34 35 36 37 38 39 40 41 42 43 44 45 46 47 48 49 50
000
ASUS45 KCYS 280510
RWRWY

WYOMING REGIONAL WEATHER ROUNDUP
NATIONAL WEATHER SERVICE CHEYENNE WY
1100 PM MDT WED AUG 27 2014

NOTE:  "FAIR" INDICATES FEW OR NO CLOUDS BELOW 12,000 FEET
WITH NO SIGNIFICANT WEATHER AND/OR OBSTRUCTIONS TO VISIBILITY.

WYZ001-280600-
YELLOWSTONE NATIONAL PARK

CITY           SKY/WX    TMP DP  RH WIND       PRES   REMARKS
LK YELLOWSTONE   N/A     48  41  76 CALM      30.37S
W YELLOWSTONE  NOT AVBL

$$
WYZ002>013-054>058-071-098>099-280600-
NORTHERN WYOMING

CITY           SKY/WX    TMP DP  RH WIND       PRES   REMARKS
JACKSON        CLEAR     59  41  51 SE5       30.27S
CODY           CLEAR     61  52  72 SW6       30.15S
GREYBULL       CLEAR     63  52  67 SE5       30.08F
WORLAND        PTCLDY    59  53  80 S6        30.10S
SHERIDAN       CLOUDY    60  53  77 CALM      30.06F
BUFFALO        CLOUDY    61  54  77 S6        30.14F
GILLETTE       CLOUDY    60  54  80 S3        30.10F
HULETT         FAIR      61  55  82 MISG      30.11
NEWCASTLE      FAIR      59  59 100 CALM      30.11

$$
WYZ014>020-022>026-101>103-280600-
CENTRAL WYOMING

CITY           SKY/WX    TMP DP  RH WIND       PRES   REMARKS
BIG PINEY      MOCLDY    50  48  93 CALM      30.32F
PINEDALE       PTCLDY    48  48 100 CALM      30.34S
DUBOIS         FAIR      54  39  58 NW10      30.29S
LANDER         CLOUDY    56  52  86 CALM      30.18F
RIVERTON       MOCLDY    58  51  78 SE3       30.19F
CASPER         CLOUDY    55  53  93 CALM      30.18S
DOUGLAS        MOCLDY    57  56  96 NW6       30.15F

$$
WYZ021-027>030-104>119-280600-
SOUTHERN WYOMING

CITY           SKY/WX    TMP DP  RH WIND       PRES   REMARKS
EVANSTON       PTCLDY    48  46  93 SW13      30.35F
KEMMERER       MOCLDY   N/A N/A N/A NW7       30.34F
FORT BRIDGER     N/A     53  49  86 W16       30.36S
ROCK SPRINGS   CLOUDY    50  47  89 W14       30.30S
DIXON          CLOUDY    54  51  89 CALM      30.31F
RAWLINS        CLOUDY    51  48  89 SW13      30.27F
SARATOGA       CLOUDY    50  46  87 W8        30.30S
LARAMIE        PTCLDY    47  44  90 E5        30.26F
CHEYENNE       PTCLDY    54  47  77 NW8       30.20S
TORRINGTON     CLOUDY    62  59  90 NE5       30.09R
PINE BLUFFS    FAIR      54  54 100 NW6       30.14S

$$


USA.gov is the U.S. government's official web portal to all federal, state and local government web resources and services.